Dewpoint
-8 -11 -15 -4 -3 -6 -4 -5 -6 6 9 11 11 13 14 14 15 12 14 14 11 8 9 11 11 8 7 8 8 8 7 3 -4 -10 -10 -14 -17 -15 -12 -10 -9 -7 -4 -4 -4 -4 -4 0 1
-11 -16 -7 -1 -6 -5 -6 -5 8 9 7 6 6 11 13 14 14 15 15 14 10 8 11 12 9 8 8 8 9 8 6 -0 -7 -10 -10 -16 -15 -12 -10 -10 -7 -4 -4 -4 -4 -4 -4 -2 2
-12 -9 1 -3 -7 -6 -6 3 9 8 6 6 5 6 12 15 14 15 14 13 10 9 11 10 8 8 9 9 9 8 2 -4 -10 -9 -12 -14 -12 -10 -10 -8 -5 -4 -3 -4 -4 -1 -2 -2 2
-6 -1 -0 -11 -10 -10 -8 -0 8 7 6 6 5 6 12 14 14 14 13 13 11 10 10 9 8 9 10 10 10 5 -1 -7 -11 -9 -13 -12 -10 -10 -8 -6 -4 -3 -3 -4 -3 0 1 -1 -1
-4 -4 -10 -11 -11 -11 -8 5 9 10 9 7 5 8 13 14 13 14 14 13 12 10 9 9 10 11 11 11 8 2 -3 -9 -12 -8 -12 -11 -9 -9 -6 -5 -4 -3 -3 -3 -2 1 3 2 1
-2 -8 -9 -9 -10 -2 8 9 9 10 9 6 7 11 13 14 14 14 13 12 11 11 11 12 12 12 12 10 5 2 -4 -11 -10 -8 -12 -8 -9 -7 -5 -4 -3 -2 -2 -2 -2 3 4 3 2
-2 -4 -4 -6 -7 2 8 8 9 8 7 7 9 11 13 14 14 13 13 11 10 11 12 12 11 9 7 8 4 3 -7 -8 -12 -10 -10 -7 -9 -6 -5 -4 -3 -2 -2 -2 0 3 4 4 4
-4 -7 -7 -9 8 9 8 7 7 6 7 7 6 9 13 12 13 13 12 11 11 11 11 10 8 7 5 6 6 -2 -7 -11 -12 -8 -5 -6 -7 -5 -5 -4 -2 -1 -2 3 5 4 4 5 5
-4 -7 -7 -5 7 6 7 7 6 7 7 8 9 11 13 14 12 12 11 11 11 11 11 10 7 7 9 9 4 -5 -6 -8 -4 -2 -3 2 5 5 -2 0 5 7 6 6 5 6 6 6 5
-7 -7 -7 -5 6 7 6 5 6 7 9 11 13 12 12 11 11 9 6 8 9 8 9 7 7 5 9 7 -1 -5 -5 0 6 7 7 8 7 7 5 8 7 7 7 6 6 6 6 4 2
-7 -6 -6 4 4 4 5 6 6 7 9 8 12 11 10 10 11 9 6 5 2 4 6 8 8 9 8 1 -5 -4 2 9 10 9 9 8 7 6 7 8 8 7 7 6 6 6 5 2 1
-7 -9 -8 2 3 4 4 5 7 6 6 6 11 9 9 10 9 8 5 7 7 4 7 10 8 6 2 1 -2 4 4 10 10 10 9 8 9 9 8 7 8 7 6 6 6 5 4 4 3
-8 -8 -9 -4 2 3 3 5 3 5 7 6 10 11 12 9 6 7 6 9 8 8 7 8 7 5 4 6 7 8 8 9 10 9 9 9 7 7 5 6 5 5 5 4 3 2 4 3 -2
-5 -8 -10 -0 2 2 3 4 3 6 8 9 10 10 11 10 8 8 8 9 8 8 8 10 8 6 7 8 9 10 10 9 8 6 4 5 7 7 5 6 6 5 2 0 -2 -1 -2 -3 -2
-4 -9 -4 -1 0 1 2 3 5 7 9 10 10 10 10 9 10 9 9 10 10 9 10 10 8 8 7 8 9 10 10 9 4 3 3 5 6 6 6 7 5 0 -4 -4 -3 -3 -3 -2 -2
-4 -8 -5 -2 -1 1 1 6 4 6 6 8 9 10 10 10 10 10 8 9 9 10 10 9 8 8 8 9 9 10 9 6 4 4 5 5 6 5 3 3 -3 -4 -2 -2 -2 -2 -2 0 1
-4 -4 -2 -4 -4 -0 -1 6 5 6 6 7 9 9 10 10 10 9 9 7 6 6 8 8 8 7 8 9 8 5 4 4 3 3 1 1 -1 -3 -5 -3 -2 -2 -2 -2 -2 -1 1 1 -5
-4 -1 -1 -2 -5 -1 1 3 5 6 5 5 8 8 8 9 10 10 9 8 7 8 6 8 8 8 7 8 6 6 5 4 4 2 -1 -3 -4 -3 -2 -2 -3 -3 -4 -2 -1 -2 -5 -11 -7
-3 -4 -3 -3 -4 -5 -3 3 5 4 4 5 5 6 6 7 7 9 9 9 9 7 2 7 9 9 9 6 5 6 4 4 3 -1 -3 -4 -3 -2 -3 -4 -3 -6 -11 -13 -12 -15 -12 -9 -9
-3 -3 -2 -3 -5 -8 -4 4 4 4 4 4 4 4 5 6 7 8 8 9 9 5 6 10 10 10 9 6 6 4 3 2 -1 -2 -4 -3 -2 -2 -3 -3 -6 -10 -15 -16 -14 -12 -11 -9 -4
-3 -2 -1 -3 -8 -5 -2 -0 2 3 3 3 5 4 3 4 6 7 8 8 8 7 6 8 9 8 8 6 6 2 2 1 0 -2 -2 -1 -0 -1 -3 -5 -11 -13 -19 -21 -22 -20 -13 -6 -2
-1 -4 -1 -2 -3 -3 -5 2 2 1 1 5 3 5 2 4 4 5 7 8 8 8 8 7 7 7 7 7 5 4 3 3 2 -1 -1 0 1 -3 -4 -10 -18 -21 -23 -27 -27 -23 -13 -5 -1
-1 -2 -3 -2 0 -1 0 2 0 3 -1 4 5 4 1 4 4 4 4 5 7 8 9 9 8 8 7 8 9 6 5 4 3 1 1 1 -1 -4 -8 -15 -20 -24 -27 -26 -20 -13 -5 -1 -1
-3 -3 0 0 1 4 3 1 1 4 0 -3 1 4 4 4 6 4 4 6 8 9 9 9 9 9 9 9 8 7 5 4 2 2 2 0 -2 -4 -11 -19 -22 -24 -25 -24 -12 -6 -3 -5 -6
-2 1 3 2 5 4 3 3 1 -0 1 0 0 1 4 5 6 6 5 6 8 9 9 10 10 10 9 7 6 5 5 2 2 2 1 -2 -5 -11 -18 -23 -25 -24 -23 -17 -8 -4 -2 -6 -7
-1 -1 3 3 6 4 4 6 3 -0 -1 -1 -1 1 4 4 6 6 7 7 9 8 9 10 10 10 7 5 4 3 2 3 2 -0 -1 -3 -9 -18 -23 -21 -19 -22 -17 -11 -5 -3 -4 -4 -6
-3 -1 -1 5 6 7 5 2 -5 1 2 1 2 2 3 6 7 7 7 8 8 9 10 9 9 10 8 4 4 3 2 1 0 -1 -2 -7 -17 -17 -8 -17 -22 -22 -16 -12 -7 -4 -4 -5 -4
-2 -4 1 4 6 7 1 1 1 1 2 2 4 3 1 6 6 7 8 8 9 9 9 9 9 8 6 5 4 3 2 0 -1 -2 -6 -13 -5 -13 -17 -19 -21 -20 -18 -14 -10 -6 -6 -6 -6
1 -1 -2 1 3 4 5 2 -5 -2 -0 0 2 2 1 5 7 8 8 9 9 9 9 9 9 7 6 5 5 3 2 -1 -1 -2 -6 -5 -10 -7 -14 -16 -17 -18 -20 -11 -8 -6 -6 -7 -7
-1 -1 -1 2 -1 4 4 3 -3 -5 -4 -0 2 2 1 4 6 6 6 7 8 8 9 9 9 7 8 7 4 2 2 -0 -1 -3 -7 -6 -4 -8 -12 -11 -11 -15 -14 -7 -6 -6 -7 -8 -8
Wind_Speed
5 6 7 3 3 4 3 8 3 2 2 7 12 17 11 8 3 3 17 28 38 36 35 34 31 28 27 25 22 20 17 16 16 18 20 22 22 21 21 22 23 25 27 29 29 28 24 22 21
4 6 4 3 4 3 5 6 2 2 8 13 14 11 10 6 5 14 21 25 40 36 34 33 32 32 27 25 23 21 18 17 17 18 20 21 21 20 21 23 23 25 26 27 27 27 26 21 20
4 7 2 3 4 5 6 1 2 5 8 6 6 12 6 4 11 30 19 31 36 37 34 32 31 30 28 25 23 21 18 17 18 19 20 20 20 21 22 23 23 23 23 24 24 24 25 23 18
3 4 3 2 5 8 1 1 5 6 5 5 15 8 9 8 11 17 21 30 33 33 33 32 31 30 27 25 23 20 18 17 18 19 19 18 19 21 22 21 21 20 20 20 20 21 22 21 20
4 1 1 2 3 6 6 3 2 6 6 8 4 6 8 15 7 14 23 28 31 32 30 29 29 27 27 24 22 21 19 16 16 18 18 17 19 21 21 20 19 18 17 17 17 17 18 19 16
1 1 2 3 4 6 3 5 7 3 5 6 14 10 7 15 14 18 24 32 30 29 30 28 28 29 27 26 21 15 12 14 17 18 18 17 19 20 19 18 17 16 14 15 14 14 13 13 13
3 3 2 3 5 1 5 7 3 7 2 2 7 5 9 14 18 21 30 24 34 25 21 32 30 35 33 20 18 11 12 16 17 18 17 17 18 18 17 16 14 12 12 13 12 10 9 10 11
4 4 2 2 3 3 7 14 12 4 3 11 6 6 7 19 19 24 24 34 31 29 23 20 23 36 37 20 13 12 13 15 18 19 19 19 17 15 12 12 11 11 11 10 10 7 6 6 7
9 2 3 2 4 4 11 6 5 1 10 10 7 12 28 27 25 25 26 28 27 25 16 19 29 28 20 18 17 14 16 18 20 20 20 18 18 16 14 14 14 11 10 9 7 5 3 1 6
4 3 7 5 1 3 3 17 9 2 8 10 26 29 26 23 23 28 29 30 30 27 24 15 28 21 21 19 18 18 20 21 21 18 16 16 14 13 12 12 11 9 8 7 3 2 1 2 3
3 5 4 4 5 13 11 7 12 4 4 9 30 32 28 29 28 26 23 28 33 28 28 29 28 23 23 22 20 21 23 21 19 16 14 12 10 10 8 8 8 7 6 4 2 2 3 2 4
2 13 12 11 14 8 7 12 6 7 5 17 28 26 29 29 22 16 25 29 30 27 24 22 22 21 22 23 21 21 21 19 17 17 12 7 6 6 5 6 7 6 4 3 5 6 6 7 11
7 10 20 20 17 10 9 6 3 9 18 27 29 27 31 39 27 23 28 26 26 27 26 24 23 24 24 22 23 22 21 18 14 13 11 8 8 7 8 8 6 7 5 4 6 9 11 12 14
13 12 6 21 20 8 10 4 4 9 21 24 24 26 26 30 33 32 30 27 24 25 24 27 24 24 24 22 21 21 20 19 14 12 6 9 8 7 8 7 5 5 5 9 10 11 12 15 14
14 4 7 8 15 6 13 3 5 25 24 24 23 25 27 22 35 33 29 30 28 27 26 27 26 24 24 21 20 19 21 16 13 4 7 8 8 5 5 4 5 5 7 11 13 14 16 15 15
4 4 4 5 10 10 9 5 4 26 25 23 22 22 25 30 33 30 29 29 28 31 29 28 28 25 23 25 23 19 17 15 9 7 8 8 7 8 6 6 5 8 10 12 15 16 16 15 16
5 0 2 6 9 4 4 2 7 19 24 24 25 23 28 32 31 32 32 29 29 26 30 33 30 30 28 27 23 17 13 10 9 12 10 10 10 7 6 6 6 7 11 14 17 17 18 20 21
1 4 2 4 6 5 5 3 7 17 25 25 28 29 31 37 36 35 34 30 24 26 32 37 33 31 29 28 23 13 12 13 12 11 11 11 9 6 4 6 11 15 17 18 18 19 20 19 17
5 2 5 5 4 4 8 10 9 19 26 20 25 31 31 39 35 35 35 30 25 30 37 38 34 32 31 30 20 13 13 14 14 13 12 10 8 5 4 10 15 17 17 18 18 19 18 17 19
4 6 8 7 9 4 7 9 3 6 22 29 29 30 38 39 40 41 38 35 32 30 34 32 30 30 31 28 16 13 17 16 13 13 12 11 8 4 9 12 15 17 16 17 17 18 18 17 14
5 3 4 5 4 6 8 4 3 5 5 12 23 33 37 39 46 44 45 42 36 33 31 30 30 32 29 23 18 19 18 18 18 18 17 14 10 7 11 14 16 16 16 16 17 18 17 14 16
6 12 6 2 4 4 2 3 5 5 7 14 28 29 31 37 42 45 43 42 39 35 29 29 31 32 31 26 25 25 25 25 22 21 17 15 8 8 12 15 14 13 15 15 14 13 13 13 12
10 7 2 1 5 4 0 5 7 0 8 12 19 37 37 39 42 46 47 44 42 37 33 28 28 28 32 31 29 30 28 26 25 23 18 13 10 11 14 13 12 14 15 15 13 11 11 12 12
3 2 5 5 4 3 7 5 5 5 14 9 14 32 43 43 33 41 43 43 42 35 31 33 30 28 31 33 30 35 34 32 31 26 19 16 15 15 12 11 11 13 13 13 12 11 13 16 18
4 5 3 3 4 4 4 2 8 8 11 14 12 20 36 41 38 42 41 40 40 35 33 34 31 32 31 29 31 33 37 34 30 23 19 17 13 10 10 11 11 13 14 12 13 14 18 18 14
5 7 5 4 3 4 3 5 6 7 16 26 20 12 19 40 43 41 36 36 37 33 34 37 35 34 34 33 31 29 30 27 23 19 17 14 11 9 8 12 14 13 12 12 12 14 17 16 19
3 2 3 6 3 1 3 5 8 7 7 2 7 13 16 26 36 38 38 35 32 35 38 35 31 37 35 33 29 27 27 25 22 20 16 11 7 9 14 13 14 14 13 13 14 12 13 15 15
3 3 3 3 4 2 4 5 4 2 3 5 5 12 16 22 32 36 36 36 35 36 35 31 30 33 36 30 27 25 26 24 21 16 11 8 10 10 11 13 14 14 13 13 12 14 16 17 18
4 3 1 4 4 4 1 5 5 5 7 8 15 23 22 28 34 35 34 34 32 33 33 33 36 36 34 33 30 28 27 25 21 17 14 13 8 12 13 14 15 16 14 13 11 14 18 22 20
2 6 5 5 4 0 4 5 4 8 5 11 15 22 25 32 37 34 31 31 31 33 37 40 40 38 37 36 33 30 27 25 23 19 16 10 9 11 12 15 16 15 14 13 13 16 20 16 17
Wind_Direction
293 267 216 196 67 71 262 258 214 275 81 65 77 97 111 59 39 165 156 169 166 164 162 164 159 158 156 152 146 143 140 131 121 118 113 114 114 109 105 104 103 100 94 88 81 77 82 87 77
267 226 200 147 100 104 262 264 244 301 138 97 67 77 51 82 90 148 151 166 164 163 163 163 161 156 157 152 147 142 140 128 119 118 118 117 115 110 109 110 109 102 96 88 81 76 78 88 82
245 192 237 141 132 172 227 312 221 351 85 140 125 63 72 93 119 148 162 165 168 165 163 161 160 156 157 152 148 140 134 123 125 120 121 121 118 117 117 116 113 104 96 87 79 73 73 81 89
191 188 245 107 233 262 232 76 218 168 101 77 108 66 64 126 134 172 174 171 174 168 165 161 159 160 157 151 144 134 129 127 125 126 126 125 121 119 118 117 112 106 96 87 79 71 70 72 77
203 205 32 257 320 279 234 297 150 353 8 22 35 83 71 74 146 164 164 170 165 162 159 158 162 160 153 144 134 133 127 122 130 133 129 123 125 124 123 120 116 110 100 88 79 74 72 71 65
272 40 48 17 290 303 49 17 118 38 15 50 75 76 69 123 138 156 160 162 153 148 154 158 158 160 148 132 125 105 129 140 135 131 130 128 127 125 126 123 117 106 95 83 78 74 71 71 65
134 74 222 280 278 328 10 356 188 140 344 300 125 90 118 112 126 146 126 159 153 154 139 129 104 114 116 108 117 151 145 136 132 132 131 130 130 127 126 122 110 97 86 85 80 68 56 60 51
213 111 321 300 352 2 334 1 350 108 175 122 103 124 117 123 133 135 132 148 154 154 101 89 78 107 114 136 148 143 139 132 133 135 135 129 123 118 116 109 98 85 86 77 70 56 54 24 9
258 56 267 262 178 208 168 87 358 307 101 84 111 133 139 137 136 125 121 146 160 163 165 138 105 139 146 154 151 144 137 136 134 134 130 125 116 104 110 107 107 98 100 94 90 88 94 9 309
137 159 235 212 129 158 258 144 179 227 107 87 96 123 140 137 140 136 138 137 145 145 149 171 164 142 154 159 152 145 143 138 137 131 126 124 126 124 123 121 118 128 128 133 137 106 153 315 0
207 206 215 205 175 191 196 210 159 154 353 160 136 129 121 122 137 147 137 139 124 134 137 137 149 154 158 155 144 142 143 137 133 133 136 132 126 127 130 141 157 153 156 145 168 268 246 224 8
235 250 243 171 169 205 166 158 124 182 199 145 151 133 136 135 135 169 152 149 150 147 144 152 150 149 161 149 146 148 152 149 143 146 133 122 131 163 178 177 165 180 201 236 256 267 283 301 306
208 255 263 193 176 208 111 56 43 86 150 138 141 139 146 146 149 158 166 158 161 159 159 155 147 145 149 150 148 147 158 159 144 145 140 170 184 203 201 204 210 236 232 244 271 281 283 295 305
303 256 236 163 171 188 150 132 41 125 149 149 149 146 165 171 165 163 164 167 168 166 163 155 151 151 153 157 157 162 159 157 157 157 176 201 210 202 204 210 213 205 255 288 296 299 303 311 316
305 207 77 132 170 159 136 38 229 162 148 150 154 156 167 158 157 165 166 171 167 169 161 166 166 170 173 165 170 174 164 160 169 196 188 192 196 213 210 195 195 267 289 298 300 301 303 306 302
26 46 108 245 147 162 158 188 228 162 160 158 156 157 165 164 169 168 164 169 172 168 167 173 174 176 173 175 185 183 176 187 213 188 187 183 175 165 164 191 243 280 289 296 300 298 306 307 302
3 153 163 170 142 118 100 171 234 165 162 162 161 168 163 172 176 174 172 174 179 179 178 180 179 178 181 186 190 187 208 203 185 162 162 163 165 175 210 243 280 313 322 317 312 304 301 303 310
331 247 284 173 225 119 138 191 188 181 159 154 174 172 172 175 182 180 180 179 176 182 186 184 182 185 190 189 190 203 189 176 175 172 175 170 177 197 240 314 324 319 315 308 298 296 299 305 306
288 26 325 311 252 112 188 173 185 163 162 150 157 167 167 177 184 185 184 183 183 187 182 184 184 188 193 192 194 206 209 187 178 185 185 191 202 214 301 320 317 312 304 298 300 304 304 305 305
12 7 314 287 259 133 145 168 171 190 172 172 175 175 175 175 182 188 190 187 189 191 190 189 189 198 198 200 209 232 202 183 192 194 203 224 238 280 316 314 311 307 301 299 300 300 303 307 301
324 261 278 245 63 40 94 58 202 196 198 201 197 193 190 187 184 189 191 192 191 194 197 193 199 202 201 203 201 194 188 194 195 201 215 219 222 270 304 314 305 293 291 290 291 294 296 298 296
305 273 217 291 78 157 155 203 255 202 226 197 214 213 211 201 195 194 195 195 198 201 200 196 202 204 205 208 201 203 202 205 210 221 221 219 235 281 293 288 285 286 288 293 292 295 296 303 296
256 275 214 219 83 87 298 100 251 19 213 213 210 212 215 211 202 198 200 204 203 202 200 201 198 204 209 209 218 219 215 217 218 215 213 214 239 263 274 281 288 291 298 304 306 313 314 301 291
268 69 54 41 79 36 291 139 283 216 228 246 190 212 221 210 213 202 203 204 203 202 207 204 200 205 206 214 220 220 216 213 213 210 209 219 240 259 269 283 294 303 307 306 310 319 309 303 299
95 56 351 11 22 213 273 129 231 230 242 235 221 201 218 212 208 201 201 202 199 204 209 206 206 209 212 214 209 212 212 216 214 210 215 233 248 261 281 294 301 308 307 308 309 314 304 313 313
233 149 155 219 190 249 284 228 248 236 264 243 231 181 189 199 204 195 192 193 199 208 208 203 205 213 209 209 210 210 215 211 207 219 232 245 261 278 296 308 307 307 302 299 302 304 307 303 310
326 145 171 103 10 30 241 262 304 2 358 177 144 163 169 187 192 192 196 201 210 206 202 213 223 214 214 211 214 210 209 211 221 229 240 257 269 298 309 298 301 307 305 297 295 297 300 300 297
134 232 53 14 135 252 284 296 246 345 274 258 207 197 185 191 196 198 202 209 213 213 212 221 219 216 217 218 220 222 217 219 225 232 252 255 291 294 305 311 312 313 308 302 297 299 305 305 300
337 310 90 121 141 167 196 270 224 220 227 224 240 235 223 194 194 198 205 211 216 216 216 216 214 217 223 229 234 232 229 227 233 241 241 259 276 311 310 322 323 315 304 290 295 299 300 305 300
179 241 165 124 237 137 151 268 240 228 214 228 235 227 212 204 202 208 212 215 217 222 220 218 219 222 234 240 237 230 233 234 232 238 240 245 281 296 315 325 317 315 300 284 292 290 306 296 292
Height
1520 1521 1521 1524 1535 1539 1539 1522 1506 1503 1502 1499 1496 1494 1501 1505 1509 1518 1514 1518 1523 1526 1529 1530 1532 1539 1542 1545 1548 1552 1556 1557 1557 1557 1557 1558 1561 1563 1566 1567 1570 1570 1570 1571 1572 1572 1571 1571 1573
1518 1520 1522 1522 1539 1547 1536 1510 1506 1502 1499 1498 1499 1501 1501 1508 1510 1512 1515 1519 1520 1525 1529 1531 1533 1534 1542 1546 1547 1550 1556 1556 1558 1559 1559 1560 1563 1565 1567 1568 1571 1571 1572 1573 1573 1574 1574 1573 1575
1518 1520 1523 1524 1539 1541 1531 1507 1508 1505 1497 1497 1499 1501 1505 1513 1512 1514 1516 1519 1523 1525 1529 1532 1535 1537 1543 1545 1549 1551 1556 1556 1558 1559 1561 1562 1565 1566 1568 1570 1573 1572 1574 1575 1575 1576 1576 1576 1577
1518 1521 1524 1528 1528 1516 1513 1507 1504 1501 1498 1497 1500 1505 1510 1514 1514 1516 1518 1522 1523 1528 1531 1534 1535 1539 1543 1546 1549 1553 1555 1557 1558 1559 1561 1564 1566 1568 1570 1573 1573 1575 1576 1576 1577 1578 1577 1578 1578
1518 1520 1528 1530 1526 1515 1502 1501 1506 1510 1504 1503 1501 1511 1515 1517 1516 1517 1519 1522 1526 1531 1535 1536 1539 1540 1543 1548 1550 1553 1554 1557 1558 1561 1563 1566 1568 1568 1571 1574 1576 1576 1577 1577 1578 1579 1579 1579 1579
1520 1521 1531 1538 1523 1505 1505 1504 1504 1508 1508 1506 1508 1512 1521 1522 1520 1522 1522 1521 1529 1532 1534 1535 1535 1539 1544 1550 1553 1553 1557 1558 1560 1562 1565 1568 1570 1571 1573 1575 1577 1577 1579 1580 1580 1580 1580 1580 1580
1520 1525 1531 1523 1515 1508 1508 1510 1509 1507 1510 1513 1509 1516 1523 1524 1525 1525 1527 1524 1529 1536 1533 1529 1533 1539 1544 1550 1554 1559 1560 1560 1562 1564 1568 1570 1571 1572 1574 1576 1578 1579 1581 1581 1581 1580 1581 1582 1580
1518 1521 1522 1516 1521 1523 1514 1511 1512 1507 1511 1511 1509 1514 1522 1526 1527 1528 1529 1534 1536 1539 1531 1537 1535 1543 1549 1559 1560 1561 1563 1563 1563 1565 1569 1570 1572 1574 1576 1577 1579 1581 1581 1582 1582 1582 1580 1581 1579
1516 1525 1528 1516 1515 1513 1507 1508 1511 1511 1511 1508 1511 1513 1518 1525 1528 1528 1531 1535 1538 1541 1540 1542 1545 1551 1555 1559 1560 1561 1564 1565 1565 1568 1570 1571 1573 1575 1577 1578 1579 1581 1581 1582 1582 1581 1580 1579 1578
1514 1523 1516 1506 1504 1506 1507 1501 1508 1511 1510 1515 1514 1517 1520 1522 1532 1530 1530 1531 1533 1537 1540 1538 1546 1547 1553 1560 1560 1562 1564 1566 1568 1569 1571 1572 1574 1576 1577 1578 1579 1580 1580 1581 1580 1581 1579 1578 1577
1510 1513 1505 1504 1502 1502 1502 1504 1505 1507 1513 1512 1513 1520 1524 1521 1533 1535 1533 1532 1536 1539 1542 1545 1548 1550 1555 1557 1558 1562 1566 1568 1569 1571 1573 1573 1574 1576 1577 1577 1578 1580 1579 1580 1580 1580 1578 1578 1577
1509 1501 1501 1503 1502 1502 1503 1503 1510 1509 1511 1513 1518 1519 1522 1528 1535 1534 1536 1537 1538 1543 1545 1549 1549 1550 1554 1557 1558 1563 1565 1568 1568 1572 1572 1573 1574 1577 1576 1576 1578 1578 1580 1579 1580 1579 1578 1577 1576
1504 1496 1494 1499 1501 1501 1502 1506 1508 1510 1511 1515 1518 1522 1525 1528 1530 1533 1538 1542 1543 1545 1547 1549 1551 1552 1555 1558 1559 1562 1566 1567 1569 1571 1572 1573 1574 1576 1575 1577 1577 1579 1578 1578 1577 1576 1576 1574 1574
1496 1492 1491 1495 1498 1502 1502 1508 1511 1513 1513 1518 1521 1522 1526 1529 1531 1536 1540 1542 1545 1547 1549 1551 1552 1557 1558 1560 1560 1563 1566 1566 1567 1570 1571 1572 1573 1574 1574 1576 1576 1576 1577 1575 1573 1574 1573 1572 1571
1494 1494 1493 1497 1500 1503 1503 1513 1514 1514 1516 1518 1521 1524 1527 1528 1531 1533 1537 1541 1543 1546 1549 1550 1553 1557 1559 1560 1561 1562 1565 1566 1568 1568 1570 1569 1571 1571 1574 1575 1574 1574 1573 1573 1572 1572 1571 1569 1568
1499 1498 1510 1499 1499 1501 1504 1518 1509 1513 1516 1518 1521 1525 1528 1530 1531 1534 1536 1540 1543 1546 1548 1550 1553 1556 1559 1560 1562 1564 1565 1566 1566 1566 1568 1567 1568 1570 1572 1573 1572 1571 1571 1570 1570 1570 1567 1565 1565
1504 1511 1503 1502 1494 1498 1505 1516 1510 1511 1515 1516 1519 1522 1526 1530 1533 1534 1536 1538 1541 1545 1547 1549 1552 1556 1558 1560 1563 1564 1564 1564 1564 1565 1565 1566 1568 1569 1571 1571 1570 1568 1568 1568 1567 1567 1566 1564 1562
1510 1506 1502 1503 1495 1497 1506 1511 1510 1512 1514 1514 1517 1519 1522 1526 1530 1532 1535 1538 1539 1542 1546 1549 1552 1554 1557 1557 1561 1561 1562 1562 1562 1563 1565 1565 1567 1568 1569 1567 1567 1567 1566 1566 1566 1566 1564 1561 1560
1500 1503 1504 1499 1493 1499 1506 1508 1510 1511 1512 1514 1516 1517 1522 1525 1528 1530 1533 1536 1539 1543 1544 1546 1548 1551 1553 1555 1556 1558 1559 1560 1561 1563 1564 1565 1565 1566 1566 1566 1566 1565 1565 1565 1563 1561 1560 1559 1558
1501 1503 1506 1497 1488 1496 1506 1508 1511 1512 1509 1511 1512 1516 1517 1521 1525 1528 1530 1533 1536 1539 1543 1546 1548 1550 1552 1555 1555 1557 1559 1560 1562 1562 1561 1561 1562 1564 1565 1565 1564 1563 1562 1561 1560 1559 1557 1556 1554
1503 1504 1503 1502 1493 1496 1502 1515 1512 1513 1511 1512 1512 1511 1511 1514 1517 1521 1524 1527 1532 1535 1539 1543 1547 1549 1551 1554 1554 1555 1557 1557 1558 1558 1558 1560 1561 1562 1562 1561 1560 1559 1559 1557 1555 1554 1553 1553 1551
1512 1493 1498 1496 1502 1517 1502 1535 1516 1508 1511 1506 1505 1507 1509 1508 1513 1516 1521 1525 1526 1529 1535 1540 1543 1545 1548 1549 1550 1551 1551 1552 1554 1555 1556 1558 1559 1559 1560 1559 1557 1556 1555 1553 1551 1549 1549 1548 1548
1503 1492 1494 1494 1506 1510 1509 1524 1511 1509 1506 1502 1497 1498 1501 1505 1505 1510 1513 1517 1520 1525 1529 1534 1538 1542 1545 1546 1546 1548 1549 1550 1550 1552 1554 1556 1556 1557 1556 1555 1554 1551 1550 1551 1548 1545 1545 1545 1545
1490 1492 1499 1503 1512 1538 1517 1520 1522 1511 1495 1488 1491 1492 1497 1501 1509 1511 1512 1516 1521 1526 1528 1531 1533 1537 1540 1542 1543 1544 1546 1546 1547 1550 1553 1554 1554 1553 1552 1551 1550 1549 1547 1545 1545 1543 1543 1542 1540
1491 1505 1526 1528 1545 1544 1511 1517 1510 1491 1487 1483 1483 1487 1491 1497 1502 1506 1508 1513 1520 1523 1525 1528 1530 1533 1536 1538 1539 1541 1543 1545 1547 1550 1552 1552 1550 1550 1549 1548 1545 1544 1543 1542 1543 1540 1541 1540 1538
1495 1503 1531 1534 1549 1528 1515 1522 1499 1478 1475 1476 1479 1487 1489 1492 1498 1501 1506 1510 1514 1518 1521 1523 1526 1530 1533 1535 1537 1541 1543 1545 1548 1550 1550 1549 1548 1547 1545 1547 1544 1540 1540 1539 1539 1539 1537 1537 1535
1495 1504 1499 1525 1536 1534 1521 1498 1487 1477 1476 1475 1480 1485 1489 1491 1494 1499 1505 1508 1511 1513 1517 1519 1523 1526 1529 1531 1534 1538 1542 1542 1545 1545 1545 1545 1545 1544 1542 1541 1542 1539 1539 1537 1535 1537 1536 1534 1534
1490 1493 1510 1522 1531 1532 1517 1510 1504 1483 1480 1479 1481 1482 1486 1490 1494 1498 1502 1505 1508 1510 1512 1516 1520 1523 1525 1528 1531 1534 1537 1538 1539 1540 1541 1542 1540 1540 1540 1538 1537 1536 1535 1534 1531 1533 1532 1531 1529
1496 1499 1499 1508 1525 1531 1539 1518 1488 1483 1480 1480 1477 1478 1481 1486 1490 1493 1496 1500 1503 1507 1509 1510 1514 1517 1520 1522 1525 1527 1530 1532 1533 1535 1535 1536 1538 1536 1536 1535 1534 1533 1531 1530 1528 1528 1527 1526 1525
1484 1494 1498 1527 1514 1531 1534 1515 1480 1479 1477 1476 1477 1477 1479 1482 1485 1488 1490 1494 1498 1500 1502 1503 1507 1509 1511 1514 1516 1519 1522 1525 1527 1528 1529 1530 1530 1531 1531 1531 1530 1528 1528 1527 1526 1525 1523 1521 1520